Погода в Ленинском

Россия / Орловская область     52°38′18″N   37°14′20″E
темп.,
°C
ветер,
м/с
пор.,
м/с
влажн.,
%
обл.,
%
осадки,
мм/ч
давл.,
гПа
погр.,
м
18 апреля, вс
вс1800:00+5ссз1190100 0.0 101813
03:00+4ююв12905 0.0 101815
06:00+4всв2394100 0.3 101888
09:00+5в3495100 2.9 1018645
12:00+9св227090 0.9 1018932
15:00+10всв2261100 1.6 10181052
18:00+9вюв236898 1.1 1017277
21:00+8в2275100 1.6 101824
19 апреля, пн
пн1900:00+7в227871 0.2 101827
03:00+6всв3584100 0.2 101892
06:00+5в2596100 2.0 1018213
09:00+8св478198 3.0 1018502
12:00+11в3466100 0.4 10171077
15:00+9св677999 2.2 1018746
18:00+8св7984100 1.1 1018658
21:00+5св61092100 1.1 1019424
20 апреля, вт
вт2000:00+5св5993100 0.0 1018435
03:00+6всв5893100 0.0 1017606
06:00+6всв5993100 0.0 1016408
09:00+7всв51091100 0.2 1016739
12:00+9в71086100 0.4 1013947
15:00+8всв81284100 0.6 1011891
18:00+6всв91391100 2.4 1007987
21:00+4св91796100 12.9 10021118
21 апреля, ср
ср2100:00+8вюв91697100 2.9 996631
03:00+9ююв71395100 3.3 996786
06:00+2зюз61098100 1.0 1000392
09:00+2з71188100 1.6 1004700
12:00+4зюз71284100 0.1 1007981
15:00+6зюз61182100 0.1 10101196
18:00+7юз61175100 0.1 1012845
21:00+6юз41083100 0.3 1015369
22 апреля, чт
чт2200:00+4юз39875 0.0 1016203
03:00+3ююз39887 0.0 1017184
06:00+3ююз39905 0.0 1019176
09:00+8ююз587194 0.0 1019512
12:00+12ююз685977 0.0 10191186
15:00+11ююз897236 0.4 10191092
18:00+11ю587164 0.3 10191044
21:00+9ююв31085100 1.4 1019296